QPF
0.03 0.03 0.02 0.01 0.01 0.01 0.00 0.00 0.00 0.00 0.00 0.00 0.00 0.00 0.00 0.00 0.00 0.00 0.00 0.00 0.00 0.00 0.00 0.00 0.00 0.00 0.00 0.00 0.00 0.00 0.00 0.00 0.00 0.00 0.00 0.00 0.00 0.00 0.01 0.01 0.01 0.01 0.01
0.01 0.01 0.01 0.00 0.00 0.00 0.00 0.00 0.00 0.00 0.00 0.00 0.00 0.00 0.00 0.00 0.00 0.00 0.00 0.00 0.00 0.00 0.00 0.00 0.00 0.00 0.00 0.00 0.00 0.00 0.00 0.01 0.01 0.01 0.01 0.00 0.01 0.01 0.02 0.02 0.01 0.01 0.01
0.01 0.00 0.00 0.00 0.00 0.00 0.00 0.00 0.00 0.00 0.00 0.00 0.00 0.00 0.00 0.00 0.00 0.00 0.00 0.00 0.00 0.00 0.00 0.00 0.00 0.00 0.00 0.01 0.01 0.01 0.01 0.01 0.01 0.02 0.02 0.01 0.01 0.01 0.03 0.02 0.02 0.03 0.01
0.00 0.00 0.00 0.00 0.00 0.00 0.00 0.00 0.01 0.01 0.01 0.01 0.00 0.00 0.00 0.00 0.00 0.00 0.00 0.00 0.00 0.00 0.00 0.00 0.00 0.01 0.01 0.01 0.01 0.01 0.01 0.02 0.02 0.03 0.02 0.02 0.02 0.02 0.04 0.04 0.03 0.02 0.02
0.00 0.00 0.00 0.00 0.00 0.00 0.00 0.00 0.01 0.01 0.01 0.00 0.00 0.00 0.00 0.00 0.00 0.00 0.00 0.00 0.00 0.00 0.00 0.01 0.01 0.01 0.00 0.00 0.00 0.01 0.02 0.02 0.02 0.03 0.03 0.02 0.02 0.04 0.05 0.04 0.03 0.02 0.02
0.02 0.01 0.01 0.01 0.00 0.00 0.00 0.01 0.01 0.00 0.00 0.00 0.00 0.00 0.00 0.00 0.00 0.00 0.00 0.00 0.00 0.01 0.01 0.01 0.01 0.01 0.00 0.01 0.01 0.01 0.01 0.02 0.03 0.04 0.04 0.04 0.04 0.05 0.06 0.05 0.04 0.04 0.02
0.03 0.02 0.02 0.01 0.01 0.01 0.00 0.01 0.01 0.01 0.01 0.01 0.00 0.00 0.00 0.00 0.00 0.00 0.00 0.00 0.00 0.01 0.01 0.01 0.01 0.01 0.01 0.02 0.01 0.01 0.01 0.01 0.03 0.05 0.05 0.06 0.06 0.06 0.06 0.04 0.04 0.04 0.04
0.02 0.01 0.01 0.01 0.01 0.01 0.01 0.01 0.01 0.01 0.01 0.01 0.01 0.01 0.01 0.00 0.00 0.00 0.00 0.00 0.01 0.01 0.01 0.01 0.01 0.02 0.02 0.00 0.00 0.01 0.01 0.02 0.03 0.05 0.06 0.06 0.05 0.04 0.04 0.04 0.04 0.04 0.03
0.02 0.01 0.01 0.01 0.01 0.01 0.01 0.01 0.01 0.01 0.01 0.01 0.01 0.01 0.01 0.01 0.00 0.00 0.00 0.00 0.00 0.00 0.01 0.01 0.01 0.02 0.01 0.00 0.00 0.01 0.02 0.03 0.02 0.02 0.02 0.02 0.02 0.02 0.03 0.03 0.04 0.05 0.04
0.01 0.01 0.01 0.01 0.01 0.01 0.01 0.01 0.01 0.01 0.01 0.01 0.01 0.01 0.01 0.02 0.00 0.00 0.00 0.00 0.00 0.00 0.00 0.01 0.01 0.01 0.00 0.00 0.00 0.01 0.02 0.02 0.02 0.02 0.04 0.05 0.06 0.05 0.04 0.05 0.06 0.06 0.06
0.02 0.03 0.03 0.02 0.01 0.01 0.02 0.02 0.02 0.02 0.03 0.02 0.02 0.03 0.03 0.02 0.01 0.00 0.00 0.00 0.00 0.00 0.01 0.01 0.02 0.00 0.00 0.00 0.00 0.02 0.02 0.01 0.02 0.05 0.06 0.06 0.05 0.05 0.05 0.06 0.06 0.07 0.07
0.03 0.04 0.04 0.03 0.02 0.01 0.02 0.03 0.03 0.03 0.04 0.04 0.04 0.04 0.04 0.02 0.01 0.00 0.00 0.00 0.00 0.01 0.01 0.02 0.01 0.00 0.00 0.00 0.00 0.01 0.00 0.01 0.05 0.08 0.07 0.05 0.04 0.04 0.04 0.04 0.05 0.06 0.06
0.04 0.04 0.03 0.02 0.02 0.02 0.01 0.03 0.03 0.04 0.04 0.03 0.03 0.04 0.03 0.02 0.01 0.00 0.00 0.00 0.00 0.01 0.01 0.01 0.00 0.00 0.00 0.03 0.02 0.00 0.02 0.07 0.08 0.07 0.07 0.05 0.04 0.04 0.04 0.04 0.04 0.05 0.05
0.05 0.04 0.03 0.02 0.02 0.01 0.01 0.01 0.01 0.02 0.02 0.01 0.02 0.03 0.03 0.02 0.01 0.00 0.00 0.00 0.00 0.01 0.01 0.01 0.01 0.02 0.02 0.04 0.04 0.05 0.08 0.08 0.06 0.07 0.07 0.06 0.04 0.04 0.04 0.03 0.04 0.04 0.04
0.05 0.03 0.02 0.02 0.02 0.02 0.01 0.01 0.00 0.00 0.00 0.00 0.01 0.01 0.01 0.01 0.00 0.00 0.00 0.00 0.00 0.00 0.00 0.01 0.03 0.04 0.04 0.04 0.04 0.05 0.06 0.05 0.05 0.07 0.06 0.05 0.04 0.03 0.03 0.03 0.03 0.03 0.03
0.03 0.02 0.01 0.01 0.01 0.01 0.01 0.02 0.01 0.00 0.00 0.00 0.00 0.00 0.00 0.00 0.00 0.00 0.00 0.00 0.00 0.00 0.01 0.02 0.03 0.02 0.02 0.03 0.03 0.03 0.04 0.05 0.05 0.05 0.06 0.05 0.03 0.03 0.03 0.03 0.03 0.03 0.03
0.01 0.01 0.00 0.01 0.01 0.01 0.01 0.03 0.04 0.02 0.00 0.00 0.00 0.00 0.00 0.00 0.00 0.00 0.00 0.01 0.01 0.01 0.02 0.03 0.03 0.02 0.02 0.03 0.03 0.04 0.04 0.05 0.05 0.05 0.05 0.04 0.03 0.02 0.02 0.02 0.02 0.02 0.03
0.00 0.01 0.00 0.01 0.00 0.00 0.01 0.02 0.03 0.06 0.05 0.03 0.01 0.00 0.00 0.00 0.00 0.01 0.01 0.01 0.02 0.02 0.03 0.03 0.02 0.02 0.03 0.03 0.04 0.04 0.05 0.04 0.04 0.04 0.04 0.04 0.03 0.02 0.02 0.01 0.01 0.01 0.02
0.00 0.01 0.01 0.00 0.00 0.00 0.01 0.01 0.01 0.03 0.04 0.04 0.03 0.01 0.01 0.01 0.02 0.01 0.02 0.03 0.03 0.02 0.02 0.02 0.03 0.03 0.04 0.04 0.04 0.05 0.05 0.04 0.03 0.03 0.03 0.03 0.03 0.02 0.02 0.01 0.01 0.00 0.01
0.01 0.01 0.00 0.00 0.01 0.00 0.00 0.01 0.01 0.02 0.02 0.02 0.01 0.01 0.02 0.03 0.04 0.03 0.03 0.03 0.02 0.02 0.01 0.01 0.02 0.03 0.04 0.04 0.03 0.03 0.04 0.03 0.03 0.02 0.02 0.02 0.02 0.02 0.01 0.01 0.00 0.00 0.01
0.01 0.01 0.01 0.00 0.00 0.00 0.00 0.01 0.01 0.02 0.02 0.02 0.01 0.01 0.01 0.03 0.04 0.04 0.03 0.02 0.02 0.01 0.01 0.01 0.02 0.03 0.03 0.02 0.02 0.02 0.02 0.02 0.03 0.03 0.02 0.01 0.01 0.01 0.01 0.01 0.00 0.00 0.00
0.00 0.00 0.00 0.00 0.00 0.00 0.00 0.00 0.00 0.01 0.01 0.01 0.01 0.01 0.02 0.03 0.03 0.03 0.02 0.02 0.02 0.02 0.01 0.02 0.02 0.03 0.02 0.02 0.02 0.02 0.01 0.01 0.02 0.04 0.04 0.02 0.01 0.01 0.01 0.01 0.00 0.00 0.00
0.00 0.00 0.00 0.00 0.00 0.00 0.00 0.00 0.00 0.00 0.01 0.01 0.01 0.01 0.02 0.03 0.02 0.02 0.01 0.01 0.02 0.02 0.02 0.02 0.02 0.02 0.02 0.01 0.02 0.01 0.00 0.00 0.00 0.03 0.06 0.04 0.02 0.01 0.02 0.02 0.01 0.01 0.01
0.00 0.00 0.00 0.00 0.00 0.00 0.00 0.00 0.00 0.00 0.00 0.01 0.01 0.01 0.01 0.02 0.02 0.01 0.01 0.01 0.01 0.02 0.02 0.02 0.02 0.01 0.01 0.01 0.00 0.00 0.00 0.00 0.00 0.01 0.04 0.05 0.03 0.02 0.03 0.03 0.03 0.02 0.02
0.00 0.00 0.00 0.00 0.00 0.00 0.00 0.00 0.00 0.00 0.00 0.00 0.01 0.01 0.01 0.02 0.01 0.01 0.01 0.01 0.01 0.02 0.02 0.01 0.01 0.00 0.00 0.00 0.00 0.00 0.00 0.00 0.00 0.00 0.01 0.03 0.02 0.01 0.02 0.03 0.03 0.03 0.03
0.00 0.00 0.00 0.00 0.00 0.00 0.00 0.00 0.00 0.00 0.00 0.00 0.00 0.00 0.01 0.01 0.01 0.01 0.01 0.01 0.01 0.01 0.01 0.01 0.01 0.00 0.00 0.00 0.00 0.00 0.00 0.00 0.00 0.00 0.01 0.02 0.01 0.01 0.02 0.02 0.01 0.02 0.03
MSLP
1016.73 1017.31 1017.88 1018.39 1018.81 1019.13 1019.38 1019.58 1019.77 1019.98 1020.22 1020.49 1020.77 1021.04 1021.27 1021.45 1021.56 1021.63 1021.66 1021.68 1021.71 1021.78 1021.88 1022.00 1022.13 1022.23 1022.29 1022.27 1022.16 1021.97 1021.71 1021.39 1021.05 1020.69 1020.34 1020.01 1019.69 1019.39 1019.10 1018.81 1018.52 1018.22 1017.90
1017.58 1018.12 1018.62 1019.04 1019.37 1019.60 1019.77 1019.90 1020.03 1020.20 1020.41 1020.67 1020.95 1021.24 1021.51 1021.72 1021.87 1021.96 1022.00 1022.01 1022.01 1022.03 1022.06 1022.12 1022.19 1022.24 1022.27 1022.24 1022.15 1022.00 1021.77 1021.49 1021.17 1020.82 1020.46 1020.09 1019.72 1019.36 1019.00 1018.63 1018.26 1017.88 1017.48
1018.47 1018.97 1019.40 1019.74 1019.99 1020.15 1020.24 1020.33 1020.42 1020.57 1020.78 1021.05 1021.36 1021.68 1021.97 1022.22 1022.39 1022.48 1022.51 1022.48 1022.44 1022.38 1022.33 1022.31 1022.30 1022.30 1022.28 1022.24 1022.15 1022.01 1021.81 1021.56 1021.25 1020.90 1020.52 1020.11 1019.69 1019.26 1018.83 1018.40 1017.96 1017.51 1017.05
1019.42 1019.86 1020.22 1020.49 1020.66 1020.75 1020.80 1020.86 1020.95 1021.10 1021.33 1021.62 1021.96 1022.31 1022.63 1022.89 1023.07 1023.15 1023.14 1023.06 1022.94 1022.80 1022.66 1022.54 1022.45 1022.38 1022.32 1022.24 1022.15 1022.01 1021.82 1021.57 1021.25 1020.89 1020.47 1020.02 1019.55 1019.06 1018.57 1018.07 1017.58 1017.09 1016.59
1020.38 1020.76 1021.04 1021.24 1021.34 1021.38 1021.41 1021.45 1021.55 1021.72 1021.97 1022.30 1022.67 1023.04 1023.37 1023.63 1023.78 1023.83 1023.78 1023.63 1023.43 1023.20 1022.98 1022.77 1022.60 1022.46 1022.34 1022.23 1022.10 1021.95 1021.74 1021.47 1021.14 1020.74 1020.28 1019.78 1019.26 1018.72 1018.18 1017.65 1017.13 1016.62 1016.12
1021.30 1021.60 1021.81 1021.93 1021.98 1021.98 1021.99 1022.03 1022.14 1022.33 1022.61 1022.96 1023.33 1023.71 1024.03 1024.26 1024.39 1024.39 1024.29 1024.08 1023.81 1023.50 1023.20 1022.92 1022.68 1022.47 1022.30 1022.14 1021.98 1021.78 1021.54 1021.24 1020.86 1020.42 1019.92 1019.37 1018.80 1018.23 1017.67 1017.12 1016.60 1016.11 1015.62
1022.10 1022.33 1022.46 1022.51 1022.51 1022.48 1022.47 1022.51 1022.63 1022.83 1023.11 1023.46 1023.83 1024.18 1024.48 1024.68 1024.76 1024.72 1024.56 1024.31 1023.98 1023.63 1023.27 1022.94 1022.64 1022.38 1022.16 1021.95 1021.74 1021.49 1021.20 1020.85 1020.43 1019.94 1019.39 1018.81 1018.22 1017.63 1017.06 1016.53 1016.04 1015.58 1015.14
1022.71 1022.86 1022.92 1022.92 1022.87 1022.81 1022.79 1022.82 1022.93 1023.13 1023.41 1023.73 1024.07 1024.38 1024.63 1024.79 1024.83 1024.75 1024.56 1024.28 1023.93 1023.56 1023.17 1022.81 1022.48 1022.18 1021.91 1021.65 1021.38 1021.08 1020.73 1020.32 1019.85 1019.32 1018.75 1018.15 1017.55 1016.97 1016.43 1015.94 1015.49 1015.09 1014.70
1023.09 1023.17 1023.18 1023.13 1023.05 1022.97 1022.93 1022.96 1023.05 1023.23 1023.47 1023.76 1024.05 1024.31 1024.52 1024.63 1024.63 1024.53 1024.33 1024.05 1023.70 1023.33 1022.95 1022.57 1022.22 1021.89 1021.58 1021.26 1020.94 1020.58 1020.17 1019.71 1019.21 1018.65 1018.07 1017.47 1016.89 1016.35 1015.85 1015.41 1015.02 1014.68 1014.35
1023.26 1023.29 1023.26 1023.18 1023.08 1022.99 1022.94 1022.95 1023.03 1023.18 1023.38 1023.62 1023.86 1024.07 1024.23 1024.30 1024.29 1024.18 1023.99 1023.72 1023.40 1023.04 1022.67 1022.30 1021.94 1021.58 1021.22 1020.85 1020.47 1020.05 1019.60 1019.10 1018.57 1018.01 1017.44 1016.87 1016.33 1015.84 1015.40 1015.01 1014.68 1014.39 1014.12
1023.25 1023.25 1023.20 1023.11 1023.00 1022.91 1022.86 1022.87 1022.93 1023.06 1023.23 1023.42 1023.62 1023.79 1023.91 1023.97 1023.94 1023.84 1023.67 1023.43 1023.13 1022.80 1022.45 1022.07 1021.69 1021.30 1020.89 1020.47 1020.03 1019.56 1019.06 1018.54 1018.00 1017.46 1016.92 1016.41 1015.92 1015.49 1015.12 1014.79 1014.51 1014.26 1014.01
1023.14 1023.12 1023.06 1022.97 1022.88 1022.81 1022.77 1022.79 1022.85 1022.97 1023.12 1023.29 1023.46 1023.60 1023.71 1023.75 1023.73 1023.65 1023.49 1023.27 1023.00 1022.68 1022.32 1021.93 1021.52 1021.08 1020.62 1020.14 1019.64 1019.12 1018.60 1018.07 1017.55 1017.04 1016.55 1016.10 1015.69 1015.32 1015.01 1014.73 1014.48 1014.25 1014.01
1022.96 1022.94 1022.89 1022.83 1022.77 1022.72 1022.72 1022.76 1022.84 1022.97 1023.12 1023.29 1023.46 1023.60 1023.70 1023.75 1023.73 1023.65 1023.51 1023.30 1023.03 1022.70 1022.31 1021.89 1021.42 1020.92 1020.40 1019.85 1019.30 1018.76 1018.22 1017.69 1017.20 1016.74 1016.31 1015.93 1015.59 1015.29 1015.02 1014.78 1014.56 1014.33 1014.09
1022.77 1022.76 1022.73 1022.69 1022.67 1022.67 1022.71 1022.80 1022.92 1023.08 1023.26 1023.45 1023.63 1023.78 1023.89 1023.95 1023.94 1023.86 1023.71 1023.49 1023.19 1022.82 1022.38 1021.89 1021.36 1020.79 1020.20 1019.60 1019.00 1018.43 1017.89 1017.38 1016.93 1016.52 1016.16 1015.85 1015.57 1015.33 1015.10 1014.88 1014.67 1014.43 1014.18
1022.57 1022.57 1022.56 1022.56 1022.58 1022.63 1022.73 1022.87 1023.04 1023.25 1023.48 1023.71 1023.93 1024.10 1024.23 1024.29 1024.28 1024.19 1024.01 1023.75 1023.40 1022.96 1022.46 1021.89 1021.28 1020.63 1019.98 1019.33 1018.70 1018.11 1017.58 1017.10 1016.69 1016.34 1016.04 1015.78 1015.56 1015.35 1015.15 1014.94 1014.73 1014.49 1014.22
1022.38 1022.38 1022.38 1022.41 1022.46 1022.57 1022.72 1022.91 1023.15 1023.42 1023.71 1023.99 1024.24 1024.45 1024.59 1024.66 1024.64 1024.52 1024.30 1023.98 1023.56 1023.05 1022.47 1021.82 1021.13 1020.42 1019.72 1019.03 1018.39 1017.80 1017.29 1016.84 1016.47 1016.16 1015.90 1015.68 1015.49 1015.30 1015.11 1014.91 1014.68 1014.44 1014.16
1022.17 1022.16 1022.17 1022.21 1022.30 1022.44 1022.63 1022.88 1023.18 1023.51 1023.85 1024.18 1024.47 1024.71 1024.87 1024.93 1024.89 1024.74 1024.47 1024.09 1023.60 1023.02 1022.37 1021.66 1020.92 1020.17 1019.43 1018.74 1018.10 1017.53 1017.04 1016.62 1016.28 1015.99 1015.75 1015.55 1015.36 1015.16 1014.96 1014.75 1014.51 1014.26 1013.99
1021.97 1021.94 1021.94 1021.98 1022.07 1022.24 1022.46 1022.75 1023.09 1023.47 1023.85 1024.22 1024.55 1024.81 1024.98 1025.04 1024.98 1024.79 1024.48 1024.05 1023.51 1022.89 1022.19 1021.44 1020.68 1019.92 1019.19 1018.51 1017.89 1017.34 1016.88 1016.48 1016.15 1015.87 1015.63 1015.40 1015.18 1014.96 1014.73 1014.49 1014.24 1013.98 1013.72
1021.78 1021.72 1021.70 1021.73 1021.82 1021.99 1022.23 1022.54 1022.91 1023.31 1023.73 1024.12 1024.47 1024.74 1024.92 1024.97 1024.90 1024.69 1024.36 1023.90 1023.33 1022.69 1021.98 1021.24 1020.49 1019.75 1019.05 1018.41 1017.83 1017.32 1016.87 1016.48 1016.15 1015.85 1015.57 1015.30 1015.03 1014.75 1014.47 1014.19 1013.91 1013.64 1013.39
1021.65 1021.56 1021.51 1021.51 1021.59 1021.74 1021.98 1022.30 1022.67 1023.09 1023.52 1023.92 1024.28 1024.56 1024.73 1024.78 1024.71 1024.49 1024.15 1023.69 1023.14 1022.51 1021.83 1021.13 1020.43 1019.75 1019.10 1018.51 1017.98 1017.50 1017.07 1016.68 1016.32 1015.97 1015.63 1015.29 1014.95 1014.60 1014.25 1013.91 1013.59 1013.30 1013.05
1021.60 1021.48 1021.40 1021.38 1021.43 1021.57 1021.79 1022.10 1022.47 1022.88 1023.30 1023.71 1024.06 1024.33 1024.51 1024.56 1024.48 1024.28 1023.96 1023.53 1023.01 1022.43 1021.81 1021.17 1020.55 1019.94 1019.37 1018.84 1018.35 1017.89 1017.47 1017.06 1016.66 1016.25 1015.84 1015.42 1014.98 1014.55 1014.12 1013.72 1013.35 1013.03 1012.77
1021.66 1021.51 1021.41 1021.36 1021.40 1021.52 1021.72 1022.01 1022.36 1022.75 1023.15 1023.54 1023.89 1024.15 1024.32 1024.38 1024.32 1024.14 1023.85 1023.47 1023.01 1022.49 1021.95 1021.40 1020.85 1020.33 1019.83 1019.35 1018.90 1018.46 1018.03 1017.60 1017.15 1016.68 1016.18 1015.67 1015.15 1014.63 1014.13 1013.66 1013.25 1012.89 1012.61
1021.82 1021.67 1021.55 1021.50 1021.52 1021.62 1021.80 1022.07 1022.39 1022.76 1023.13 1023.50 1023.82 1024.08 1024.24 1024.31 1024.27 1024.12 1023.88 1023.55 1023.15 1022.71 1022.25 1021.78 1021.31 1020.85 1020.41 1019.98 1019.55 1019.12 1018.67 1018.20 1017.70 1017.17 1016.61 1016.03 1015.44 1014.85 1014.29 1013.77 1013.32 1012.93 1012.62
1022.06 1021.91 1021.80 1021.75 1021.77 1021.86 1022.03 1022.27 1022.57 1022.90 1023.25 1023.58 1023.88 1024.12 1024.29 1024.36 1024.34 1024.22 1024.02 1023.75 1023.42 1023.05 1022.65 1022.24 1021.84 1021.43 1021.02 1020.62 1020.20 1019.76 1019.29 1018.79 1018.25 1017.68 1017.07 1016.44 1015.80 1015.18 1014.59 1014.04 1013.56 1013.15 1012.83
1022.32 1022.20 1022.11 1022.07 1022.10 1022.20 1022.36 1022.58 1022.85 1023.16 1023.47 1023.78 1024.05 1024.28 1024.43 1024.51 1024.51 1024.42 1024.26 1024.04 1023.76 1023.44 1023.09 1022.73 1022.36 1021.98 1021.59 1021.19 1020.77 1020.32 1019.83 1019.30 1018.74 1018.14 1017.50 1016.86 1016.21 1015.59 1014.99 1014.45 1013.98 1013.57 1013.24
1022.58 1022.49 1022.44 1022.43 1022.48 1022.58 1022.74 1022.95 1023.20 1023.47 1023.76 1024.03 1024.29 1024.49 1024.65 1024.73 1024.74 1024.69 1024.56 1024.37 1024.13 1023.85 1023.54 1023.20 1022.85 1022.48 1022.09 1021.68 1021.24 1020.77 1020.27 1019.73 1019.15 1018.55 1017.92 1017.29 1016.66 1016.06 1015.50 1014.99 1014.54 1014.16 1013.85
Thickness
5655 5650 5645 5639 5634 5629 5623 5617 5611 5607 5602 5597 5593 5588 5584 5579 5575 5570 5567 5563 5558 5553 5548 5544 5538 5534 5529 5523 5519 5515 5512 5508 5506 5504 5498 5493 5487 5482 5478 5473 5469 5467 5465
5639 5634 5629 5623 5618 5613 5607 5601 5596 5591 5586 5582 5578 5573 5569 5564 5559 5555 5550 5546 5541 5536 5531 5526 5522 5518 5512 5507 5503 5499 5494 5490 5487 5485 5481 5476 5471 5467 5464 5461 5458 5456 5454
5622 5617 5611 5606 5600 5595 5589 5584 5579 5575 5570 5566 5562 5557 5552 5548 5542 5537 5532 5528 5524 5519 5515 5510 5507 5502 5498 5494 5488 5484 5480 5477 5471 5468 5466 5463 5459 5456 5453 5450 5448 5446 5445
5604 5598 5593 5587 5582 5577 5572 5567 5563 5558 5554 5550 5545 5540 5535 5529 5522 5516 5512 5509 5506 5503 5499 5496 5493 5489 5485 5480 5475 5471 5467 5462 5458 5455 5453 5452 5449 5447 5443 5441 5440 5439 5437
5584 5578 5572 5568 5563 5559 5554 5550 5546 5542 5538 5533 5528 5523 5517 5510 5501 5495 5491 5491 5488 5487 5485 5483 5480 5477 5473 5468 5464 5459 5455 5451 5447 5444 5443 5442 5441 5439 5436 5434 5432 5432 5431
5565 5559 5554 5550 5545 5541 5537 5533 5528 5524 5519 5515 5510 5505 5498 5491 5482 5477 5473 5472 5472 5472 5471 5469 5467 5466 5462 5458 5453 5449 5445 5442 5440 5437 5435 5435 5434 5432 5430 5428 5426 5425 5426
5546 5542 5538 5534 5530 5526 5523 5516 5511 5506 5502 5497 5492 5486 5479 5471 5466 5462 5459 5457 5458 5459 5458 5456 5455 5454 5451 5447 5444 5442 5440 5437 5436 5433 5432 5432 5431 5429 5427 5425 5422 5419 5418
5532 5528 5524 5520 5516 5511 5506 5500 5495 5490 5485 5481 5476 5471 5464 5456 5451 5448 5445 5446 5448 5448 5447 5445 5444 5442 5439 5435 5434 5435 5435 5435 5434 5434 5433 5431 5429 5427 5424 5420 5418 5417 5417
5518 5514 5510 5506 5501 5496 5490 5485 5480 5475 5471 5466 5462 5457 5451 5444 5438 5434 5432 5433 5436 5435 5435 5435 5434 5433 5429 5427 5428 5430 5433 5434 5435 5434 5433 5431 5430 5427 5424 5419 5417 5415 5415
5505 5500 5496 5491 5486 5481 5475 5470 5466 5461 5457 5453 5448 5444 5439 5434 5427 5422 5419 5421 5423 5423 5424 5426 5426 5425 5423 5423 5424 5427 5430 5433 5434 5434 5433 5432 5431 5428 5425 5420 5417 5414 5412
5493 5488 5482 5477 5473 5467 5462 5457 5452 5448 5444 5440 5436 5432 5428 5423 5417 5412 5409 5409 5410 5411 5415 5418 5420 5420 5421 5422 5424 5427 5430 5431 5432 5433 5433 5432 5431 5428 5425 5422 5417 5413 5410
5481 5475 5470 5466 5462 5456 5450 5445 5441 5437 5434 5430 5425 5421 5417 5412 5408 5404 5401 5400 5400 5403 5407 5411 5415 5417 5420 5424 5427 5430 5431 5431 5432 5434 5433 5432 5430 5428 5425 5422 5418 5414 5410
5470 5464 5460 5455 5450 5446 5441 5437 5433 5428 5425 5421 5417 5412 5408 5404 5400 5396 5395 5395 5396 5399 5403 5408 5412 5417 5421 5426 5431 5432 5433 5434 5434 5434 5434 5432 5430 5428 5426 5423 5420 5417 5413
5460 5456 5452 5447 5443 5438 5434 5430 5426 5420 5415 5411 5407 5403 5400 5397 5392 5389 5389 5392 5394 5398 5401 5406 5412 5419 5424 5428 5431 5434 5435 5436 5435 5435 5434 5433 5432 5430 5427 5424 5421 5418 5415
5453 5449 5445 5441 5437 5433 5428 5420 5416 5407 5401 5398 5395 5392 5390 5388 5382 5380 5382 5386 5389 5393 5397 5405 5414 5420 5426 5430 5433 5435 5437 5438 5438 5438 5437 5435 5433 5431 5428 5426 5422 5419 5416
5448 5444 5441 5437 5433 5429 5424 5416 5406 5401 5394 5389 5385 5382 5382 5379 5379 5381 5383 5386 5391 5395 5399 5407 5413 5420 5424 5428 5432 5436 5438 5440 5441 5441 5439 5437 5435 5433 5430 5428 5425 5422 5418
5443 5439 5437 5434 5431 5427 5423 5418 5408 5396 5390 5387 5383 5381 5379 5379 5380 5383 5386 5389 5395 5399 5403 5409 5414 5420 5424 5428 5433 5437 5440 5442 5444 5444 5442 5440 5438 5436 5433 5431 5428 5425 5423
5441 5437 5433 5431 5429 5426 5422 5419 5413 5405 5397 5392 5386 5383 5382 5382 5384 5386 5389 5393 5399 5404 5407 5411 5416 5421 5426 5430 5435 5439 5442 5445 5447 5447 5445 5444 5442 5440 5438 5435 5433 5429 5427
5441 5437 5433 5431 5428 5425 5422 5418 5413 5407 5402 5397 5392 5389 5387 5387 5389 5390 5393 5397 5401 5405 5409 5413 5418 5423 5428 5434 5438 5442 5445 5447 5448 5449 5449 5448 5447 5445 5443 5441 5439 5434 5432
5440 5433 5432 5431 5429 5426 5423 5418 5414 5409 5405 5400 5397 5393 5392 5392 5393 5395 5397 5400 5403 5407 5411 5416 5421 5426 5432 5437 5441 5445 5447 5449 5449 5450 5451 5451 5451 5450 5449 5448 5446 5443 5440
5444 5438 5430 5431 5429 5425 5422 5419 5415 5411 5408 5404 5400 5396 5394 5395 5396 5398 5400 5402 5406 5409 5413 5418 5423 5430 5435 5439 5443 5446 5448 5449 5450 5450 5452 5453 5455 5454 5454 5452 5451 5449 5447
5444 5441 5437 5433 5429 5425 5422 5421 5417 5414 5411 5408 5405 5401 5398 5400 5401 5401 5403 5406 5409 5413 5417 5421 5427 5432 5436 5440 5443 5446 5447 5447 5448 5449 5451 5454 5456 5457 5456 5455 5454 5453 5452
5445 5443 5438 5434 5431 5423 5424 5423 5420 5417 5414 5411 5408 5406 5404 5403 5403 5404 5406 5409 5412 5416 5421 5425 5429 5433 5436 5440 5442 5444 5443 5444 5445 5448 5451 5454 5457 5458 5457 5457 5457 5456 5454
5444 5442 5438 5435 5432 5429 5427 5424 5421 5418 5415 5412 5409 5407 5405 5404 5404 5406 5408 5411 5415 5419 5423 5427 5430 5433 5436 5438 5440 5442 5442 5443 5446 5450 5452 5455 5458 5458 5458 5457 5457 5456 5455
5444 5440 5437 5434 5432 5430 5427 5424 5421 5418 5415 5412 5410 5407 5406 5406 5406 5408 5410 5413 5417 5421 5424 5427 5430 5431 5434 5436 5438 5440 5443 5447 5449 5451 5454 5457 5458 5458 5459 5459 5458 5456 5455
5443 5439 5436 5433 5431 5429 5426 5423 5420 5418 5416 5413 5409 5408 5406 5406 5407 5409 5411 5414 5418 5421 5424 5427 5428 5430 5432 5435 5437 5440 5445 5448 5451 5453 5455 5457 5458 5457 5458 5459 5459 5457 5455